Location: St. Louis
(38.6270°N, 90.1994°W)
Time: 02:47:05
(UTC-06:00)

Transit 2A - Pass Details

Date: 02 December 2021
Orbit: 591 x 966 km, 66.7° (Epoch: 24 January)

Event Time Altitude Azimuth Distance (km) Brightness Sun altitude
Rises 23:50:58 0° 202° (SSW) 3,211 - -73.5°
Reaches altitude 10° 23:53:15 10° 201° (SSW) 2,345 - -73.5°
Maximum altitude 23:58:40 77° 116° (ESE) 877 - -73.4°
Drops below altitude 10° 00:04:43 10° 31° (NNE) 2,600 - -73.2°
Sets 00:07:21 0° 30° (NNE) 3,586 - -73.1°
